This is the latest recevied weather packets stored in our database for station/object N3SBK. If no packets are shown the sender has not sent any weather packets the latest 10 day(s).
| Time | Temp. | Humidity | Pressure | Rain* | Wind** | Luminosity | Snow |
|---|---|---|---|---|---|---|---|
| 1778020776 | 21.67° C | 45% | 999.6 hPa | 0 mm | - | 69 W/m² | - |
| 1778020473 | 21.67° C | 46% | 1000 hPa | 0 mm | - | 67 W/m² | - |
| 1778020170 | 21.67° C | 45% | 1000 hPa | 0 mm | - | 70 W/m² | - |
| 1778019866 | 22.22° C | 45% | 1000 hPa | 0 mm | - | 75 W/m² | - |
| 1778019562 | 22.22° C | 45% | 1000 hPa | 0 mm | - | 79 W/m² | - |
| 1778019260 | 22.22° C | 45% | 1000.1 hPa | 0 mm | - | 87 W/m² | - |
| 1778018957 | 22.22° C | 45% | 1000 hPa | 0 mm | - | 89 W/m² | - |
| 1778018653 | 22.22° C | 44% | 1000.1 hPa | 0 mm | - | 94 W/m² | - |
| 1778018351 | 22.78° C | 45% | 1000.2 hPa | 0 mm | - | 104 W/m² | - |
| 1778018049 | 22.22° C | 45% | 1000.2 hPa | 0 mm | - | 131 W/m² | - |
| 1778017747 | 22.22° C | 45% | 1000.1 hPa | 0 mm | - | 117 W/m² | - |
| 1778017444 | 22.78° C | 47% | 1000 hPa | 0 mm | - | 99 W/m² | - |
| 1778017141 | 22.78° C | 47% | 999.9 hPa | 0 mm | - | 112 W/m² | - |
| 1778016839 | 22.22° C | 46% | 999.9 hPa | 0 mm | - | 122 W/m² | - |
| 1778016535 | 22.22° C | 46% | 999.9 hPa | 0 mm | - | 108 W/m² | - |
| 1778016232 | 22.22° C | 46% | 999.9 hPa | 0 mm | - | 101 W/m² | - |
| 1778015928 | 22.78° C | 45% | 999.6 hPa | 0 mm | - | 101 W/m² | - |
| 1778015626 | 22.22° C | 47% | 999.6 hPa | 0 mm | - | 123 W/m² | - |
| 1778015322 | 22.22° C | 48% | 999.6 hPa | 0 mm | - | 73 W/m² | - |
| 1778015019 | 22.22° C | 49% | 999.8 hPa | 0 mm | - | 91 W/m² | - |
| 1778014716 | 21.11° C | 50% | 999.8 hPa | 0 mm | - | 127 W/m² | - |
| 1778014414 | 21.11° C | 55% | 999.9 hPa | 0 mm | - | 92 W/m² | - |
| 1778014110 | 21.67° C | 55% | 999.5 hPa | 0 mm | - | 63 W/m² | - |
| 1778013809 | 22.22° C | 51% | 999.8 hPa | 0 mm | - | 86 W/m² | - |
| 1778013506 | 22.22° C | 48% | 999.5 hPa | 0 mm | - | 125 W/m² | - |
* Rain latest hour (hover to see other rain measurements)
** Current wind speed in m/s (hover to see current wind gust speed)